STARLINK-34267, 65080

Orbit data source: Space-Track

STARLINK-34267, 65080 is a payload satellite owned by SpaceX/Seattle (US) in LEO that was launched on Mon, 04 Aug 2025 UTC via an FALCON 9 launch vehicle from the Air Force Eastern Test Range (AFETR). Payload-class satellites include a variety of spacecraft equipped with specific instruments for various scientific and technological missions. These include communications satellites like Starlink; space stations such as the ISS; scientific satellites like the Hubble; Earth observation satellites from companies like Planet Labs, Umbra, and HawkEye 360; GPS; miniature CubeSats for education and research; and military/defense satellites.

Loading next visibility...
Identifier
65080, 2025-167C
Orbit
LEO
Country
Flag of USUS
Related business
Manufacturer
SpaceX/Seattle
Mission
Operational Commercial Communications
Bus & Motor
STARLINK V2MO, Unknown motor
Mass
575 kg wet, ~530 kg dry
Launch date (UTC)
2025-08-04 (11 months ago)
Launch vehicle
FALCON 9
Launch site
Air Force Eastern Test Range (AFETR)
Object type
Payload
Rocket body
Debris
Shape & HBR
Box + 2 Pan, 17.7 m
Radar Cross Section
36.964 m², Large (>1 m²)

Expand to show TLE details & history
Last TLE update: 2 days ago

TLE from 2 days ago
0 STARLINK-34267
1 65080U 25167C   26173.52580528  .00023274  00000-0  69801-3 0  9999
2 65080  53.1572 256.0033 0001113  92.0551 268.0579 15.34391641 50808
Epoch: 2026-06-22T12:37Z
TLE epoch observation values (Epoch: 2026-06-22T12:37:09.576Z)
Latitude
-0.00001°
Longitude
156.00293°
Altitude
463.655 km
Speed
7.636 km/s
True Right ascension
17h 04m 00s
True Declination
0° 00' 00"
Sunlit
Object was in full shadow at epoch
Visualization orbit readout
Latitude
Unknown
Longitude
Unknown
Altitude
Unknown
Speed
Unknown
Apparent Right ascension
Unknown
Apparent Declination
Unknown
Sunlit
N/A
Visualization observer readout
Local Sidereal Time
13:49:51
Azimuth
Unknown
Elevation
Unknown
Doppler factor
Unknown
Orbital elements
Apogee altitude
463.747 km
Perigee altitude
462.224 km
Semi-major axis
6,841.122 km
Eccentricity
0.00011
Inclination
53.1572°
RAAN
256.0033°
Arg. of periapsis
92.0551°
True anomaly
268.04515°
Mean anomaly
268.0579°
Eccentric anomaly
268.05153°
Mean motion
3.83577 °/min
Orbital period
93.85 mins
BSTAR
0.00069801
Loading maneuver chart data...
Computing Atmospheric mass density...
Loading historical data...
Loading historical data...
Loading historical data...
Loading historical data...
Loading historical data...
Loading historical data...
Loading historical data...

Documentation

Showing up to 5 results
|